Year,Month,Day,Hour,Minute,Value (Times are PST for temperature in C)
2017,08,04,00,00,23.60
2017,08,04,00,01,23.50
2017,08,04,00,02,23.40
2017,08,04,00,03,23.30
2017,08,04,00,04,23.30
2017,08,04,00,05,23.20
2017,08,04,00,06,23.20
2017,08,04,00,07,23.10
2017,08,04,00,08,23.10
2017,08,04,00,09,23.00
2017,08,04,00,10,23.00
2017,08,04,00,11,22.90
2017,08,04,00,12,22.80
2017,08,04,00,13,22.80
2017,08,04,00,14,22.80
2017,08,04,00,15,22.70
2017,08,04,00,16,22.70
2017,08,04,00,17,22.60
2017,08,04,00,18,22.60
2017,08,04,00,19,22.60
2017,08,04,00,20,22.50
2017,08,04,00,21,22.50
2017,08,04,00,22,22.40
2017,08,04,00,23,22.40
2017,08,04,00,24,22.40
2017,08,04,00,25,22.30
2017,08,04,00,26,22.30
2017,08,04,00,27,22.30
2017,08,04,00,28,22.30
2017,08,04,00,29,22.20
2017,08,04,00,30,22.20
2017,08,04,00,31,22.20
2017,08,04,00,32,22.20
2017,08,04,00,33,22.10
2017,08,04,00,34,22.10
2017,08,04,00,35,22.10
2017,08,04,00,36,22.10
2017,08,04,00,37,22.00
2017,08,04,00,38,22.00
2017,08,04,00,39,22.00
2017,08,04,00,40,21.90
2017,08,04,00,41,21.90
2017,08,04,00,42,21.90
2017,08,04,00,43,21.80
2017,08,04,00,44,21.80
2017,08,04,00,45,21.80
2017,08,04,00,46,21.70
2017,08,04,00,47,21.70
2017,08,04,00,48,21.70
2017,08,04,00,49,21.70
2017,08,04,00,50,21.70
2017,08,04,00,51,21.70
2017,08,04,00,52,21.70
2017,08,04,00,53,21.70
2017,08,04,00,54,21.70
2017,08,04,00,55,21.70
2017,08,04,00,56,21.70
2017,08,04,00,57,21.80
2017,08,04,00,58,21.80
2017,08,04,00,59,21.90
2017,08,04,01,00,22.00
2017,08,04,01,01,22.10
2017,08,04,01,02,22.30
2017,08,04,01,03,22.50
2017,08,04,01,04,22.60
2017,08,04,01,05,22.80
2017,08,04,01,06,23.00
2017,08,04,01,07,23.10
2017,08,04,01,08,23.30
2017,08,04,01,09,23.30
2017,08,04,01,10,23.40
2017,08,04,01,11,23.40
2017,08,04,01,12,23.50
2017,08,04,01,13,23.70
2017,08,04,01,14,23.80
2017,08,04,01,15,23.90
2017,08,04,01,16,23.90
2017,08,04,01,17,24.00
2017,08,04,01,18,24.00
2017,08,04,01,19,24.10
2017,08,04,01,20,24.10
2017,08,04,01,21,24.10
2017,08,04,01,22,24.10
2017,08,04,01,23,24.20
2017,08,04,01,24,24.20
2017,08,04,01,25,24.20
2017,08,04,01,26,24.20
2017,08,04,01,27,24.20
2017,08,04,01,28,24.20
2017,08,04,01,29,24.10
2017,08,04,01,30,24.20
2017,08,04,01,31,24.20
2017,08,04,01,32,24.20
2017,08,04,01,33,24.20
2017,08,04,01,34,24.20
2017,08,04,01,35,24.10
2017,08,04,01,36,24.10
2017,08,04,01,37,24.10
2017,08,04,01,38,24.10
2017,08,04,01,39,24.10
2017,08,04,01,40,24.20
2017,08,04,01,41,24.20
2017,08,04,01,42,24.20
2017,08,04,01,43,24.20
2017,08,04,01,44,24.20
2017,08,04,01,45,24.20
2017,08,04,01,46,24.20
2017,08,04,01,47,24.20
2017,08,04,01,48,24.20
2017,08,04,01,49,24.20
2017,08,04,01,50,24.20
2017,08,04,01,51,24.20
2017,08,04,01,52,24.20
2017,08,04,01,53,24.20
2017,08,04,01,54,24.20
2017,08,04,01,55,24.10
2017,08,04,01,56,24.10
2017,08,04,01,57,24.10
2017,08,04,01,58,24.10
2017,08,04,01,59,24.10
2017,08,04,02,00,24.10
2017,08,04,02,01,24.10
2017,08,04,02,02,24.10
2017,08,04,02,03,24.10
2017,08,04,02,04,24.00
2017,08,04,02,05,24.00
2017,08,04,02,06,24.00
2017,08,04,02,07,23.90
2017,08,04,02,08,23.90
2017,08,04,02,09,23.90
2017,08,04,02,10,23.90
2017,08,04,02,11,23.80
2017,08,04,02,12,23.80
2017,08,04,02,13,23.80
2017,08,04,02,14,23.80
2017,08,04,02,15,23.80
2017,08,04,02,16,23.80
2017,08,04,02,17,23.80
2017,08,04,02,18,23.70
2017,08,04,02,19,23.70
2017,08,04,02,20,23.70
2017,08,04,02,21,23.70
2017,08,04,02,22,23.70
2017,08,04,02,23,23.70
2017,08,04,02,24,23.70
2017,08,04,02,25,23.80
2017,08,04,02,26,23.80
2017,08,04,02,27,23.80
2017,08,04,02,28,23.90
2017,08,04,02,29,23.90
2017,08,04,02,30,23.90
2017,08,04,02,31,24.00
2017,08,04,02,32,23.90
2017,08,04,02,33,23.90
2017,08,04,02,34,23.90
2017,08,04,02,35,23.90
2017,08,04,02,36,23.90
2017,08,04,02,37,23.90
2017,08,04,02,38,23.90
2017,08,04,02,39,23.90
2017,08,04,02,40,23.90
2017,08,04,02,41,23.90
2017,08,04,02,42,23.90
2017,08,04,02,43,23.90
2017,08,04,02,44,23.80
2017,08,04,02,45,23.80
2017,08,04,02,46,23.80
2017,08,04,02,47,23.80
2017,08,04,02,48,23.80
2017,08,04,02,49,23.80
2017,08,04,02,50,23.70
2017,08,04,02,51,23.70
2017,08,04,02,52,23.70
2017,08,04,02,53,23.70
2017,08,04,02,54,23.70
2017,08,04,02,55,23.60
2017,08,04,02,56,23.60
2017,08,04,02,57,23.60
2017,08,04,02,58,23.60
2017,08,04,02,59,23.60
2017,08,04,03,00,23.60
2017,08,04,03,01,23.60
2017,08,04,03,02,23.60
2017,08,04,03,03,23.60
2017,08,04,03,04,23.60
2017,08,04,03,05,23.60
2017,08,04,03,06,23.60
2017,08,04,03,07,23.60
2017,08,04,03,08,23.60
2017,08,04,03,09,23.60
2017,08,04,03,10,23.60
2017,08,04,03,11,23.60
2017,08,04,03,12,23.60
2017,08,04,03,13,23.60
2017,08,04,03,14,23.60
2017,08,04,03,15,23.60
2017,08,04,03,16,23.60
2017,08,04,03,17,23.60
2017,08,04,03,18,23.60
2017,08,04,03,19,23.60
2017,08,04,03,20,23.60
2017,08,04,03,21,23.60
2017,08,04,03,22,23.60
2017,08,04,03,23,23.60
2017,08,04,03,24,23.60
2017,08,04,03,25,23.60
2017,08,04,03,26,23.60
2017,08,04,03,27,23.60
2017,08,04,03,28,23.70
2017,08,04,03,29,23.70
2017,08,04,03,30,23.70
2017,08,04,03,31,23.70
2017,08,04,03,32,23.70
2017,08,04,03,33,23.70
2017,08,04,03,34,23.70
2017,08,04,03,35,23.70
2017,08,04,03,36,23.70
2017,08,04,03,37,23.70
2017,08,04,03,38,23.70
2017,08,04,03,39,23.70
2017,08,04,03,40,23.50
2017,08,04,03,41,23.10
2017,08,04,03,42,22.70
2017,08,04,03,43,22.50
2017,08,04,03,44,22.30
2017,08,04,03,45,22.30
2017,08,04,03,46,22.40
2017,08,04,03,47,22.40
2017,08,04,03,48,22.50
2017,08,04,03,49,22.60
2017,08,04,03,50,22.70
2017,08,04,03,51,22.70
2017,08,04,03,52,22.70
2017,08,04,03,53,22.60
2017,08,04,03,54,22.40
2017,08,04,03,55,22.20
2017,08,04,03,56,21.90
2017,08,04,03,57,21.60
2017,08,04,03,58,21.40
2017,08,04,03,59,21.10
2017,08,04,04,00,20.80
2017,08,04,04,01,20.50
2017,08,04,04,02,20.30
2017,08,04,04,03,20.10
2017,08,04,04,04,20.00
2017,08,04,04,05,19.80
2017,08,04,04,06,19.60
2017,08,04,04,07,19.60
2017,08,04,04,08,19.50
2017,08,04,04,09,19.50
2017,08,04,04,10,19.40
2017,08,04,04,11,19.30
2017,08,04,04,12,19.20
2017,08,04,04,13,19.10
2017,08,04,04,14,19.00
2017,08,04,04,15,18.90
2017,08,04,04,16,18.80
2017,08,04,04,17,18.70
2017,08,04,04,18,18.60
2017,08,04,04,19,18.50
2017,08,04,04,20,18.40
2017,08,04,04,21,18.30
2017,08,04,04,22,18.30
2017,08,04,04,23,18.20
2017,08,04,04,24,18.10
2017,08,04,04,25,18.00
2017,08,04,04,26,17.90
2017,08,04,04,27,17.90
2017,08,04,04,28,17.80
2017,08,04,04,29,17.80
2017,08,04,04,30,17.70
2017,08,04,04,31,17.70
2017,08,04,04,32,17.60
2017,08,04,04,33,17.60
2017,08,04,04,34,17.50
2017,08,04,04,35,17.50
2017,08,04,04,36,17.40
2017,08,04,04,37,17.40
2017,08,04,04,38,17.30
2017,08,04,04,39,17.30
2017,08,04,04,40,17.30
2017,08,04,04,41,17.30
2017,08,04,04,42,17.30
2017,08,04,04,43,17.20
2017,08,04,04,44,17.20
2017,08,04,04,45,17.20
2017,08,04,04,46,17.20
2017,08,04,04,47,17.20
2017,08,04,04,48,17.20
2017,08,04,04,49,17.20
2017,08,04,04,50,17.10
2017,08,04,04,51,17.10
2017,08,04,04,52,17.10
2017,08,04,04,53,17.10
2017,08,04,04,54,17.10
2017,08,04,04,55,17.00
2017,08,04,04,56,17.00
2017,08,04,04,57,17.00
2017,08,04,04,58,16.90
2017,08,04,04,59,16.90
2017,08,04,05,00,16.90
2017,08,04,05,01,16.90
2017,08,04,05,02,16.90
2017,08,04,05,03,16.90
2017,08,04,05,04,16.90
2017,08,04,05,05,16.90
2017,08,04,05,06,16.90
2017,08,04,05,07,16.90
2017,08,04,05,08,16.90
2017,08,04,05,09,16.80
2017,08,04,05,10,16.80
2017,08,04,05,11,16.70
2017,08,04,05,12,16.70
2017,08,04,05,13,16.70
2017,08,04,05,14,16.70
2017,08,04,05,15,16.60
2017,08,04,05,16,16.60
2017,08,04,05,17,16.60
2017,08,04,05,18,16.60
2017,08,04,05,19,16.60
2017,08,04,05,20,16.60
2017,08,04,05,21,16.50
2017,08,04,05,22,16.60
2017,08,04,05,23,16.50
2017,08,04,05,24,16.60
2017,08,04,05,25,16.60
2017,08,04,05,26,16.60
2017,08,04,05,27,16.60
2017,08,04,05,28,16.60
2017,08,04,05,29,16.50
2017,08,04,05,30,16.50
2017,08,04,05,31,16.50
2017,08,04,05,32,16.50
2017,08,04,05,33,16.50
2017,08,04,05,34,16.50
2017,08,04,05,35,16.50
2017,08,04,05,36,16.50
2017,08,04,05,37,16.50
2017,08,04,05,38,16.40
2017,08,04,05,39,16.50
2017,08,04,05,40,16.50
2017,08,04,05,41,16.50
2017,08,04,05,42,16.50
2017,08,04,05,43,16.50
2017,08,04,05,44,16.50
2017,08,04,05,45,16.50
2017,08,04,05,46,16.50
2017,08,04,05,47,16.40
2017,08,04,05,48,16.40
2017,08,04,05,49,16.40
2017,08,04,05,50,16.40
2017,08,04,05,51,16.30
2017,08,04,05,52,16.30
2017,08,04,05,53,16.30
2017,08,04,05,54,16.30
2017,08,04,05,55,16.20
2017,08,04,05,56,16.20
2017,08,04,05,57,16.20
2017,08,04,05,58,16.20
2017,08,04,05,59,16.10
2017,08,04,06,00,16.10
2017,08,04,06,01,16.10
2017,08,04,06,02,16.10
2017,08,04,06,03,16.10
2017,08,04,06,04,16.10
2017,08,04,06,05,16.00
2017,08,04,06,06,16.00
2017,08,04,06,07,16.00
2017,08,04,06,08,16.00
2017,08,04,06,09,15.90
2017,08,04,06,10,15.90
2017,08,04,06,11,15.90
2017,08,04,06,12,15.90
2017,08,04,06,13,15.90
2017,08,04,06,14,15.80
2017,08,04,06,15,15.80
2017,08,04,06,16,15.80
2017,08,04,06,17,15.80
2017,08,04,06,18,15.80
2017,08,04,06,19,15.80
2017,08,04,06,20,15.80
2017,08,04,06,21,15.70
2017,08,04,06,22,15.70
2017,08,04,06,23,15.70
2017,08,04,06,24,15.70
2017,08,04,06,25,15.70
2017,08,04,06,26,15.70
2017,08,04,06,27,15.70
2017,08,04,06,28,15.70
2017,08,04,06,29,15.70
2017,08,04,06,30,15.70
2017,08,04,06,31,15.80
2017,08,04,06,32,15.80
2017,08,04,06,33,15.80
2017,08,04,06,34,15.80
2017,08,04,06,35,15.90
2017,08,04,06,36,15.90
2017,08,04,06,37,15.90
2017,08,04,06,38,15.90
2017,08,04,06,39,15.90
2017,08,04,06,40,16.00
2017,08,04,06,41,16.00
2017,08,04,06,42,16.00
2017,08,04,06,43,16.00
2017,08,04,06,44,16.00
2017,08,04,06,45,16.00
2017,08,04,06,46,16.00
2017,08,04,06,47,16.00
2017,08,04,06,48,15.90
2017,08,04,06,49,15.90
2017,08,04,06,50,15.90
2017,08,04,06,51,15.90
2017,08,04,06,52,15.90
2017,08,04,06,53,15.90
2017,08,04,06,54,15.90
2017,08,04,06,55,15.90
2017,08,04,06,56,15.90
2017,08,04,06,57,15.90
2017,08,04,06,58,15.80
2017,08,04,06,59,15.80
2017,08,04,07,00,15.80
2017,08,04,07,01,15.80
2017,08,04,07,02,15.80
2017,08,04,07,03,15.80
2017,08,04,07,04,15.80
2017,08,04,07,05,15.80
2017,08,04,07,06,15.80
2017,08,04,07,07,15.80
2017,08,04,07,08,15.80
2017,08,04,07,09,15.80
2017,08,04,07,10,15.90
2017,08,04,07,11,15.90
2017,08,04,07,12,15.90
2017,08,04,07,13,15.90
2017,08,04,07,14,15.90
2017,08,04,07,15,15.90
2017,08,04,07,16,15.90
2017,08,04,07,17,16.00
2017,08,04,07,18,16.00
2017,08,04,07,19,16.10
2017,08,04,07,20,16.10
2017,08,04,07,21,16.10
2017,08,04,07,22,16.20
2017,08,04,07,23,16.20
2017,08,04,07,24,16.30
2017,08,04,07,25,16.30
2017,08,04,07,26,16.40
2017,08,04,07,27,16.40
2017,08,04,07,28,16.50
2017,08,04,07,29,16.50
2017,08,04,07,30,16.60
2017,08,04,07,31,16.60
2017,08,04,07,32,16.70
2017,08,04,07,33,16.70
2017,08,04,07,34,16.80
2017,08,04,07,35,16.90
2017,08,04,07,36,17.00
2017,08,04,07,37,17.00
2017,08,04,07,38,17.10
2017,08,04,07,39,17.20
2017,08,04,07,40,17.30
2017,08,04,07,41,17.40
2017,08,04,07,42,17.50
2017,08,04,07,43,17.60
2017,08,04,07,44,17.60
2017,08,04,07,45,17.70
2017,08,04,07,46,17.80
2017,08,04,07,47,17.80
2017,08,04,07,48,17.90
2017,08,04,07,49,17.90
2017,08,04,07,50,17.90
2017,08,04,07,51,17.90
2017,08,04,07,52,17.90
2017,08,04,07,53,18.00
2017,08,04,07,54,18.00
2017,08,04,07,55,18.10
2017,08,04,07,56,18.20
2017,08,04,07,57,18.20
2017,08,04,07,58,18.30
2017,08,04,07,59,18.40
2017,08,04,08,00,18.40
2017,08,04,08,01,18.50
2017,08,04,08,02,18.60
2017,08,04,08,03,18.70
2017,08,04,08,04,18.80
2017,08,04,08,05,18.80
2017,08,04,08,06,18.90
2017,08,04,08,07,19.00
2017,08,04,08,08,19.00
2017,08,04,08,09,19.10
2017,08,04,08,10,19.10
2017,08,04,08,11,19.20
2017,08,04,08,12,19.20
2017,08,04,08,13,19.30
2017,08,04,08,14,19.30
2017,08,04,08,15,19.30
2017,08,04,08,16,19.30
2017,08,04,08,17,19.40
2017,08,04,08,18,19.50
2017,08,04,08,19,19.60
2017,08,04,08,20,19.60
2017,08,04,08,21,19.70
2017,08,04,08,22,19.80
2017,08,04,08,23,19.90
2017,08,04,08,24,20.00
2017,08,04,08,25,20.20
2017,08,04,08,26,20.30
2017,08,04,08,27,20.50
2017,08,04,08,28,20.60
2017,08,04,08,29,20.70
2017,08,04,08,30,20.80
2017,08,04,08,31,20.80
2017,08,04,08,32,20.80
2017,08,04,08,33,20.90
2017,08,04,08,34,20.90
2017,08,04,08,35,20.90
2017,08,04,08,36,20.90
2017,08,04,08,37,20.90
2017,08,04,08,38,21.00
2017,08,04,08,39,21.00
2017,08,04,08,40,21.10
2017,08,04,08,41,21.10
2017,08,04,08,42,21.20
2017,08,04,08,43,21.20
2017,08,04,08,44,21.30
2017,08,04,08,45,21.40
2017,08,04,08,46,21.40
2017,08,04,08,47,21.50
2017,08,04,08,48,21.50
2017,08,04,08,49,21.60
2017,08,04,08,50,21.70
2017,08,04,08,51,21.80
2017,08,04,08,52,21.80
2017,08,04,08,53,21.90
2017,08,04,08,54,22.00
2017,08,04,08,55,22.10
2017,08,04,08,56,22.10
2017,08,04,08,57,22.20
2017,08,04,08,58,22.30
2017,08,04,08,59,22.40
2017,08,04,09,00,22.40
2017,08,04,09,01,22.40
2017,08,04,09,02,22.50
2017,08,04,09,03,22.60
2017,08,04,09,04,22.70
2017,08,04,09,05,22.80
2017,08,04,09,06,22.80
2017,08,04,09,07,22.80
2017,08,04,09,08,22.80
2017,08,04,09,09,22.80
2017,08,04,09,10,22.80
2017,08,04,09,11,22.80
2017,08,04,09,12,22.90
2017,08,04,09,13,22.90
2017,08,04,09,14,23.00
2017,08,04,09,15,23.00
2017,08,04,09,16,23.10
2017,08,04,09,17,23.10
2017,08,04,09,18,23.20
2017,08,04,09,19,23.30
2017,08,04,09,20,23.40
2017,08,04,09,21,23.40
2017,08,04,09,22,23.50
2017,08,04,09,23,23.50
2017,08,04,09,24,23.50
2017,08,04,09,25,23.50
2017,08,04,09,26,23.60
2017,08,04,09,27,23.60
2017,08,04,09,28,23.60
2017,08,04,09,29,23.60
2017,08,04,09,30,23.70
2017,08,04,09,31,23.70
2017,08,04,09,32,23.80
2017,08,04,09,33,23.90
2017,08,04,09,34,24.00
2017,08,04,09,35,24.00
2017,08,04,09,36,24.10
2017,08,04,09,37,24.10
2017,08,04,09,38,24.10
2017,08,04,09,39,24.10
2017,08,04,09,40,24.10
2017,08,04,09,41,24.10
2017,08,04,09,42,24.10
2017,08,04,09,43,24.10
2017,08,04,09,44,24.20
2017,08,04,09,45,24.20
2017,08,04,09,46,24.30
2017,08,04,09,47,24.30
2017,08,04,09,48,24.30
2017,08,04,09,49,24.40
2017,08,04,09,50,24.50
2017,08,04,09,51,24.60
2017,08,04,09,52,24.70
2017,08,04,09,53,24.80
2017,08,04,09,54,24.90
2017,08,04,09,55,25.10
2017,08,04,09,56,25.20
2017,08,04,09,57,25.30
2017,08,04,09,58,25.30
2017,08,04,09,59,25.40
2017,08,04,10,00,25.50
2017,08,04,10,01,25.60
2017,08,04,10,02,25.70
2017,08,04,10,03,25.80
2017,08,04,10,04,25.80
2017,08,04,10,05,25.90
2017,08,04,10,06,26.00
2017,08,04,10,07,26.10
2017,08,04,10,08,26.20
2017,08,04,10,09,26.30
2017,08,04,10,10,26.30
2017,08,04,10,11,26.40
2017,08,04,10,12,26.40
2017,08,04,10,13,26.40
2017,08,04,10,14,26.40
2017,08,04,10,15,26.40
2017,08,04,10,16,26.40
2017,08,04,10,17,26.40
2017,08,04,10,18,26.40
2017,08,04,10,19,26.40
2017,08,04,10,20,26.40
2017,08,04,10,21,26.30
2017,08,04,10,22,26.30
2017,08,04,10,23,26.30
2017,08,04,10,24,26.30
2017,08,04,10,25,26.40
2017,08,04,10,26,26.40
2017,08,04,10,27,26.50
2017,08,04,10,28,26.60
2017,08,04,10,29,26.60
2017,08,04,10,30,26.60
2017,08,04,10,31,26.60
2017,08,04,10,32,26.70
2017,08,04,10,33,26.70
2017,08,04,10,34,26.80
2017,08,04,10,35,26.70
2017,08,04,10,36,26.80
2017,08,04,10,37,26.80
2017,08,04,10,38,26.80
2017,08,04,10,39,26.80
2017,08,04,10,40,26.80
2017,08,04,10,41,26.90
2017,08,04,10,42,26.90
2017,08,04,10,43,27.00
2017,08,04,10,44,27.10
2017,08,04,10,45,27.10
2017,08,04,10,46,27.10
2017,08,04,10,47,27.20
2017,08,04,10,48,27.20
2017,08,04,10,49,27.30
2017,08,04,10,50,27.40
2017,08,04,10,51,27.40
2017,08,04,10,52,27.50
2017,08,04,10,53,27.60
2017,08,04,10,54,27.70
2017,08,04,10,55,27.70
2017,08,04,10,56,27.70
2017,08,04,10,57,27.70
2017,08,04,10,58,27.70
2017,08,04,10,59,27.80
2017,08,04,11,00,27.80
2017,08,04,11,01,27.80
2017,08,04,11,02,27.80
2017,08,04,11,03,27.80
2017,08,04,11,04,27.70
2017,08,04,11,05,27.70
2017,08,04,11,06,27.80
2017,08,04,11,07,27.80
2017,08,04,11,08,27.80
2017,08,04,11,09,27.80
2017,08,04,11,10,27.80
2017,08,04,11,11,27.90
2017,08,04,11,12,27.90
2017,08,04,11,13,28.00
2017,08,04,11,14,28.10
2017,08,04,11,15,28.20
2017,08,04,11,16,28.30
2017,08,04,11,17,28.40
2017,08,04,11,18,28.50
2017,08,04,11,19,28.60
2017,08,04,11,20,28.70
2017,08,04,11,21,28.80
2017,08,04,11,22,28.90
2017,08,04,11,23,29.00
2017,08,04,11,24,29.00
2017,08,04,11,25,29.10
2017,08,04,11,26,29.10
2017,08,04,11,27,29.10
2017,08,04,11,28,29.10
2017,08,04,11,29,29.10
2017,08,04,11,30,29.20
2017,08,04,11,31,29.30
2017,08,04,11,32,29.30
2017,08,04,11,33,29.30
2017,08,04,11,34,29.30
2017,08,04,11,35,29.30
2017,08,04,11,36,29.30
2017,08,04,11,37,29.30
2017,08,04,11,38,29.30
2017,08,04,11,39,29.30
2017,08,04,11,40,29.30
2017,08,04,11,41,29.30
2017,08,04,11,42,29.40
2017,08,04,11,43,29.30
2017,08,04,11,44,29.30
2017,08,04,11,45,29.40
2017,08,04,11,46,29.40
2017,08,04,11,47,29.50
2017,08,04,11,48,29.50
2017,08,04,11,49,29.50
2017,08,04,11,50,29.60
2017,08,04,11,51,29.60
2017,08,04,11,52,29.60
2017,08,04,11,53,29.60
2017,08,04,11,54,29.70
2017,08,04,11,55,29.70
2017,08,04,11,56,29.60
2017,08,04,11,57,29.50
2017,08,04,11,58,29.50
2017,08,04,11,59,29.50
2017,08,04,12,00,29.60
2017,08,04,12,01,29.50
2017,08,04,12,02,29.50
2017,08,04,12,03,29.50
2017,08,04,12,04,29.50
2017,08,04,12,05,29.40
2017,08,04,12,06,29.30
2017,08,04,12,07,29.20
2017,08,04,12,08,29.20
2017,08,04,12,09,29.20
2017,08,04,12,10,29.30
2017,08,04,12,11,29.30
2017,08,04,12,12,29.40
2017,08,04,12,13,29.40
2017,08,04,12,14,29.50
2017,08,04,12,15,29.50
2017,08,04,12,16,29.50
2017,08,04,12,17,29.50
2017,08,04,12,18,29.60
2017,08,04,12,19,29.60
2017,08,04,12,20,29.70
2017,08,04,12,21,29.70
2017,08,04,12,22,29.70
2017,08,04,12,23,29.70
2017,08,04,12,24,29.70
2017,08,04,12,25,29.70
2017,08,04,12,26,29.70
2017,08,04,12,27,29.70
2017,08,04,12,28,29.80
2017,08,04,12,29,29.80
2017,08,04,12,30,29.80
2017,08,04,12,31,29.80
2017,08,04,12,32,29.90
2017,08,04,12,33,29.90
2017,08,04,12,34,29.90
2017,08,04,12,35,29.90
2017,08,04,12,36,29.90
2017,08,04,12,37,29.90
2017,08,04,12,38,30.00
2017,08,04,12,39,30.00
2017,08,04,12,40,30.00
2017,08,04,12,41,30.00
2017,08,04,12,42,30.10
2017,08,04,12,43,30.10
2017,08,04,12,44,30.10
2017,08,04,12,45,30.20
2017,08,04,12,46,30.30
2017,08,04,12,47,30.40
2017,08,04,12,48,30.50
2017,08,04,12,49,30.60
2017,08,04,12,50,30.70
2017,08,04,12,51,30.70
2017,08,04,12,52,30.70
2017,08,04,12,53,30.70
2017,08,04,12,54,30.60
2017,08,04,12,55,30.60
2017,08,04,12,56,30.60
2017,08,04,12,57,30.60
2017,08,04,12,58,30.70
2017,08,04,12,59,30.80
2017,08,04,13,00,30.80
2017,08,04,13,01,30.90
2017,08,04,13,02,30.90
2017,08,04,13,03,30.90
2017,08,04,13,04,30.90
2017,08,04,13,05,30.90
2017,08,04,13,06,30.90
2017,08,04,13,07,31.00
2017,08,04,13,08,31.00
2017,08,04,13,09,31.00
2017,08,04,13,10,31.10
2017,08,04,13,11,31.10
2017,08,04,13,12,31.20
2017,08,04,13,13,31.10
2017,08,04,13,14,31.10
2017,08,04,13,15,31.20
2017,08,04,13,16,31.20
2017,08,04,13,17,31.20
2017,08,04,13,18,31.30
2017,08,04,13,19,31.30
2017,08,04,13,20,31.30
2017,08,04,13,21,31.30
2017,08,04,13,22,31.30
2017,08,04,13,23,31.30
2017,08,04,13,24,31.30
2017,08,04,13,25,31.30
2017,08,04,13,26,31.30
2017,08,04,13,27,31.30
2017,08,04,13,28,31.30
2017,08,04,13,29,31.20
2017,08,04,13,30,31.30
2017,08,04,13,31,31.40
2017,08,04,13,32,31.40
2017,08,04,13,33,31.50
2017,08,04,13,34,31.50
2017,08,04,13,35,31.40
2017,08,04,13,36,31.40
2017,08,04,13,37,31.40
2017,08,04,13,38,31.40
2017,08,04,13,39,31.40
2017,08,04,13,40,31.50
2017,08,04,13,41,31.50
2017,08,04,13,42,31.50
2017,08,04,13,43,31.60
2017,08,04,13,44,31.70
2017,08,04,13,45,31.70
2017,08,04,13,46,31.70
2017,08,04,13,47,31.70
2017,08,04,13,48,31.70
2017,08,04,13,49,31.70
2017,08,04,13,50,31.80
2017,08,04,13,51,31.80
2017,08,04,13,52,31.80
2017,08,04,13,53,31.90
2017,08,04,13,54,31.80
2017,08,04,13,55,31.80
2017,08,04,13,56,31.70
2017,08,04,13,57,31.60
2017,08,04,13,58,31.60
2017,08,04,13,59,31.60
2017,08,04,14,00,31.60
2017,08,04,14,01,31.60
2017,08,04,14,02,31.70
2017,08,04,14,03,31.60
2017,08,04,14,04,31.70
2017,08,04,14,05,31.70
2017,08,04,14,06,31.70
2017,08,04,14,07,31.70
2017,08,04,14,08,31.70
2017,08,04,14,09,31.80
2017,08,04,14,10,31.80
2017,08,04,14,11,31.90
2017,08,04,14,12,31.90
2017,08,04,14,13,31.90
2017,08,04,14,14,31.90
2017,08,04,14,15,31.90
2017,08,04,14,16,31.90
2017,08,04,14,17,32.00
2017,08,04,14,18,32.00
2017,08,04,14,19,32.10
2017,08,04,14,20,32.20
2017,08,04,14,21,32.20
2017,08,04,14,22,32.20
2017,08,04,14,23,32.20
2017,08,04,14,24,32.30
2017,08,04,14,25,32.30
2017,08,04,14,26,32.30
2017,08,04,14,27,32.30
2017,08,04,14,28,32.30
2017,08,04,14,29,32.30
2017,08,04,14,30,32.30
2017,08,04,14,31,32.30
2017,08,04,14,32,32.30
2017,08,04,14,33,32.40
2017,08,04,14,34,32.40
2017,08,04,14,35,32.40
2017,08,04,14,36,32.40
2017,08,04,14,37,32.40
2017,08,04,14,38,32.40
2017,08,04,14,39,32.40
2017,08,04,14,40,32.50
2017,08,04,14,41,32.50
2017,08,04,14,42,32.50
2017,08,04,14,43,32.60
2017,08,04,14,44,32.60
2017,08,04,14,45,32.60
2017,08,04,14,46,32.60
2017,08,04,14,47,32.70
2017,08,04,14,48,32.70
2017,08,04,14,49,32.60
2017,08,04,14,50,32.60
2017,08,04,14,51,32.60
2017,08,04,14,52,32.60
2017,08,04,14,53,32.70
2017,08,04,14,54,32.60
2017,08,04,14,55,32.60
2017,08,04,14,56,32.60
2017,08,04,14,57,32.60
2017,08,04,14,58,32.60
2017,08,04,14,59,32.70
2017,08,04,15,00,32.80
2017,08,04,15,01,32.80
2017,08,04,15,02,32.80
2017,08,04,15,03,32.90
2017,08,04,15,04,32.80
2017,08,04,15,05,32.80
2017,08,04,15,06,32.80
2017,08,04,15,07,32.70
2017,08,04,15,08,32.60
2017,08,04,15,09,32.60
2017,08,04,15,10,32.60
2017,08,04,15,11,32.60
2017,08,04,15,12,32.60
2017,08,04,15,13,32.60
2017,08,04,15,14,32.60
2017,08,04,15,15,32.60
2017,08,04,15,16,32.60
2017,08,04,15,17,32.60
2017,08,04,15,18,32.60
2017,08,04,15,19,32.60
2017,08,04,15,20,32.60
2017,08,04,15,21,32.60
2017,08,04,15,22,32.60
2017,08,04,15,23,32.70
2017,08,04,15,24,32.70
2017,08,04,15,25,32.70
2017,08,04,15,26,32.70
2017,08,04,15,27,32.80
2017,08,04,15,28,32.80
2017,08,04,15,29,32.80
2017,08,04,15,30,32.90
2017,08,04,15,31,32.90
2017,08,04,15,32,32.80
2017,08,04,15,33,32.80
2017,08,04,15,34,32.70
2017,08,04,15,35,32.70
2017,08,04,15,36,32.70
2017,08,04,15,37,32.80
2017,08,04,15,38,32.80
2017,08,04,15,39,33.00
2017,08,04,15,40,33.10
2017,08,04,15,41,33.20
2017,08,04,15,42,33.10
2017,08,04,15,43,33.10
2017,08,04,15,44,33.10
2017,08,04,15,45,33.10
2017,08,04,15,46,33.10
2017,08,04,15,47,33.10
2017,08,04,15,48,33.10
2017,08,04,15,49,33.10
2017,08,04,15,50,33.10
2017,08,04,15,51,33.10
2017,08,04,15,52,33.10
2017,08,04,15,53,33.10
2017,08,04,15,54,33.10
2017,08,04,15,55,33.00
2017,08,04,15,56,33.00
2017,08,04,15,57,33.00
2017,08,04,15,58,33.00
2017,08,04,15,59,33.00
2017,08,04,16,00,33.00
2017,08,04,16,01,33.10
2017,08,04,16,02,33.10
2017,08,04,16,03,33.20
2017,08,04,16,04,33.20
2017,08,04,16,05,33.20
2017,08,04,16,06,33.20
2017,08,04,16,07,33.30
2017,08,04,16,08,33.30
2017,08,04,16,09,33.30
2017,08,04,16,10,33.40
2017,08,04,16,11,33.40
2017,08,04,16,12,33.50
2017,08,04,16,13,33.50
2017,08,04,16,14,33.50
2017,08,04,16,15,33.60
2017,08,04,16,16,33.60
2017,08,04,16,17,33.70
2017,08,04,16,18,33.60
2017,08,04,16,19,33.50
2017,08,04,16,20,33.50
2017,08,04,16,21,33.40
2017,08,04,16,22,33.40
2017,08,04,16,23,33.30
2017,08,04,16,24,33.30
2017,08,04,16,25,33.30
2017,08,04,16,26,33.30
2017,08,04,16,27,33.40
2017,08,04,16,28,33.50
2017,08,04,16,29,33.50
2017,08,04,16,30,33.50
2017,08,04,16,31,33.50
2017,08,04,16,32,33.50
2017,08,04,16,33,33.50
2017,08,04,16,34,33.50
2017,08,04,16,35,33.50
2017,08,04,16,36,33.50
2017,08,04,16,37,33.50
2017,08,04,16,38,33.50
2017,08,04,16,39,33.50
2017,08,04,16,40,33.50
2017,08,04,16,41,33.40
2017,08,04,16,42,33.10
2017,08,04,16,43,33.10
2017,08,04,16,44,33.10
2017,08,04,16,45,33.10
2017,08,04,16,46,33.10
2017,08,04,16,47,33.10
2017,08,04,16,48,33.10
2017,08,04,16,49,33.10
2017,08,04,16,50,33.20
2017,08,04,16,51,33.10
2017,08,04,16,52,33.10
2017,08,04,16,53,33.10
2017,08,04,16,54,33.00
2017,08,04,16,55,32.90
2017,08,04,16,56,32.80
2017,08,04,16,57,32.80
2017,08,04,16,58,32.70
2017,08,04,16,59,32.70
2017,08,04,17,00,32.60
2017,08,04,17,01,32.60
2017,08,04,17,02,32.50
2017,08,04,17,03,32.50
2017,08,04,17,04,32.50
2017,08,04,17,05,32.50
2017,08,04,17,06,32.50
2017,08,04,17,07,32.40
2017,08,04,17,08,32.40
2017,08,04,17,09,32.40
2017,08,04,17,10,32.40
2017,08,04,17,11,32.40
2017,08,04,17,12,32.40
2017,08,04,17,13,32.40
2017,08,04,17,14,32.40
2017,08,04,17,15,32.40
2017,08,04,17,16,32.30
2017,08,04,17,17,32.20
2017,08,04,17,18,32.00
2017,08,04,17,19,31.90